[[{"header":{"parameterUnit":"m.s-1","parameterCategory":1,"la1":30.2991,"la2":30.254,"lo1":-89.0895,"lo2":-89.0444,"dy":0.0017,"dx":0.0017,"nx":28,"ny":28,"refTime":"2025-01-27T03:00:00:Z","depth":0,"parameterNumber":2,"parameterNumberName":"U-component_of_WINDS"},"data":[0,0,0,0,0,0,0,0,0,0,0,0,0,0,0,0,0,0,0,0,0,0,0,0,0,0,0,0,0,0,0,0,0,0,0,0,0,0,0,0,0,0,0,0,0,0,0,0,0,0,0,0,0,0,0,0,0,0,-1.5718,-1.5718,0,-1.5721,-1.5721,-1.5721,-1.5727,-1.5728,-1.5728,-1.5728,-1.573,-1.573,-1.573,0,0,0,0,0,0,0,0,0,0,0,0,0,-1.5714,-1.5714,-1.5718,-1.5718,-1.5718,-1.5721,-1.5721,-1.5721,-1.5727,-1.5728,-1.5728,-1.5728,-1.573,-1.573,-1.573,0,0,0,0,0,0,0,0,0,0,0,0,0,-1.5716,-1.5714,-1.5718,-1.5721,-1.5722,-1.5721,-1.5721,-1.5721,-1.5727,-1.5728,-1.5728,-1.5728,-1.573,-1.573,-1.573,-1.5726,0,0,-1.573,-1.573,0,0,0,0,0,0,0,0,-1.5716,-1.5716,-1.5721,-1.5721,-1.5721,-1.5724,-1.5721,-1.5723,-1.5727,-1.5725,-1.5728,-1.5728,-1.5728,-1.5728,-1.5728,-1.5726,-1.5726,-1.573,-1.573,-1.573,-1.573,0,0,0,0,0,0,0,-1.5716,-1.5716,-1.5719,-1.5721,-1.5721,-1.5722,-1.5722,-1.5721,-1.5725,-1.5725,-1.5726,-1.5726,-1.5728,-1.5728,-1.5728,-1.5726,-1.573,-1.573,-1.573,-1.573,-1.5719,-1.5718,0,0,0,0,0,0,-1.5715,-1.5716,-1.5719,-1.5719,-1.5719,-1.5722,-1.5722,-1.5723,-1.5726,-1.5726,-1.5726,-1.5727,-1.5728,-1.5728,-1.5728,-1.5723,-1.573,-1.573,-1.573,-1.5719,-1.5719,-1.5718,0,0,0,0,0,0,-1.5715,-1.5716,-1.5719,-1.5718,-1.5718,-1.5722,-1.5722,-1.5723,-1.5723,-1.5726,-1.5727,-1.5726,-1.5729,-1.5729,-1.5726,-1.5723,-1.573,-1.573,-1.5719,-1.5719,-1.5718,-1.5712,0,0,0,0,0,0,-1.5715,-1.5715,-1.5715,-1.5718,-1.5718,-1.5717,-1.5722,-1.5723,-1.5723,-1.5724,-1.5726,-1.5726,-1.5729,-1.5726,-1.5726,-1.5723,-1.5729,-1.572,-1.5719,-1.5719,-1.5712,-1.5711,-1.571,0,0,0,0,0,-1.5715,-1.5713,-1.5715,-1.5715,-1.5718,-1.5717,-1.5717,-1.5721,-1.5723,-1.5722,-1.5723,-1.5726,-1.5723,-1.5726,-1.5726,-1.5722,-1.572,-1.5719,-1.5719,-1.5713,-1.5711,-1.571,0,0,0,0,0,0,-1.571,-1.5713,-1.5716,-1.5715,-1.5715,-1.5718,-1.5717,-1.5719,-1.5719,-1.572,-1.5723,-1.5724,-1.572,-1.5721,-1.5724,-1.5718,-1.5722,-1.5721,-1.5717,-1.5716,-1.5715,-1.5715,-1.5729,0,0,0,0,0,-1.5708,-1.5709,-1.5712,-1.571,-1.5711,-1.5714,-1.5714,-1.5716,-1.5717,-1.5717,-1.5719,-1.5719,-1.5718,-1.5717,-1.5716,-1.5712,-1.5712,-1.571,-1.5709,-1.5708,-1.5707,-1.5703,-1.5701,-1.5717,-1.5717,-1.5717,0,0,-1.5706,-1.5708,-1.5708,-1.5709,-1.571,-1.5709,-1.5714,-1.5713,-1.5712,-1.5717,-1.5714,-1.5715,-1.5716,-1.5712,-1.571,-1.5713,-1.5703,-1.5707,-1.5706,-1.5706,-1.5702,-1.5701,-1.5699,-1.5716,-1.5716,-1.5716,0,0,-1.57,-1.5703,-1.5701,-1.5702,-1.5703,-1.5705,-1.5704,-1.5706,-1.5707,-1.5704,-1.5707,-1.5705,-1.5704,-1.5704,-1.5703,-1.5695,-1.5697,-1.5695,-1.569,-1.5685,-1.5684,-1.5683,-1.5679,-1.5677,-1.5694,-1.5694,-1.5694,0,-1.5697,-1.5696,-1.57,-1.5698,-1.5698,-1.5702,-1.57,-1.57,-1.5701,-1.57,-1.5702,-1.5699,-1.57,-1.5695,-1.5693,-1.5693,-1.5691,-1.5695,-1.5684,-1.5683,-1.5682,-1.5678,-1.5677,-1.5694,-1.5694,-1.5694,-1.5694,0,-1.5691,-1.569,-1.5689,-1.5689,-1.5689,-1.5687,-1.5689,-1.5688,-1.5689,-1.569,-1.5687,-1.5687,-1.5686,-1.5685,-1.5687,-1.568,-1.5681,-1.5684,-1.5688,-1.568,-1.5676,-1.5675,-1.5693,-1.5694,-1.5694,-1.5694,0,0,-1.5684,-1.5685,-1.5684,-1.5683,-1.5684,-1.5683,-1.5681,-1.5679,-1.5677,-1.5677,-1.5674,-1.5672,-1.5674,-1.5673,-1.5675,-1.5672,-1.5663,-1.5674,-1.5674,-1.5671,-1.5653,-1.565,-1.5649,-1.5664,-1.5664,-1.5664,-1.5653,0,-1.5678,-1.5674,-1.5676,-1.5672,-1.567,-1.5673,-1.567,-1.5669,-1.567,-1.5667,-1.5668,-1.5665,-1.5669,-1.5668,-1.5665,-1.5665,-1.5659,-1.5666,-1.566,-1.566,-1.5659,-1.5647,-1.5645,-1.5634,-1.5651,-1.5651,-1.5651,0,-1.5671,-1.567,-1.5666,-1.5665,-1.5664,-1.5662,-1.5659,-1.5658,-1.5656,-1.5656,-1.5655,-1.5657,-1.5652,-1.5657,-1.565,-1.5654,-1.5652,-1.5651,-1.5651,-1.565,-1.5655,-1.5645,-1.5631,-1.5629,-1.5649,-1.5649,-1.5649,0,-1.5665,-1.5662,-1.5659,-1.5658,-1.5657,-1.5655,-1.5655,-1.5654,-1.5652,-1.565,-1.5648,-1.5645,-1.5644,-1.5641,-1.5641,-1.5645,-1.5634,-1.5638,-1.5632,-1.5632,-1.563,-1.563,-1.5614,-1.563,-1.563,-1.563,-1.563,0,-1.5658,-1.5655,-1.5656,-1.5653,-1.5649,-1.565,-1.5645,-1.5645,-1.5644,-1.564,-1.5642,-1.5639,-1.564,-1.5636,-1.5636,-1.5629,-1.5629,-1.5628,-1.5628,-1.5627,-1.5627,-1.5625,-1.5626,-1.563,-1.563,-1.563,-1.563,0,-1.5651,-1.5651,-1.5647,-1.5646,-1.5645,-1.5642,-1.5641,-1.5638,-1.5637,-1.5633,-1.5632,-1.5631,-1.5627,-1.5626,-1.5621,-1.5621,-1.5612,-1.5614,-1.5613,-1.5613,-1.5606,-1.5607,-1.5589,-1.5586,-1.5604,-1.5604,-1.5604,0,-1.5646,-1.5643,-1.5641,-1.5639,-1.5638,-1.5635,-1.5633,-1.5634,-1.5631,-1.5628,-1.5625,-1.562,-1.5617,-1.5609,-1.5607,-1.5603,-1.5603,-1.5597,-1.5602,-1.5601,-1.5601,-1.5601,-1.56,-1.5596,-1.5596,-1.5595,-1.5595,0,-1.5637,-1.5637,-1.5634,-1.5631,-1.5628,-1.5626,-1.5623,-1.5621,-1.5621,-1.5618,-1.5613,-1.561,-1.5604,-1.5599,-1.5594,-1.5592,-1.5593,-1.5594,-1.5592,-1.5591,-1.559,-1.5589,-1.5609,-1.5594,-1.5594,-1.5594,-1.5594,-1.5594,-1.563,-1.5627,-1.5625,-1.5621,-1.5619,-1.5616,-1.5612,-1.5611,-1.5607,-1.5602,-1.5602,-1.5596,-1.5593,-1.5586,-1.5584,-1.5578,-1.558,-1.5578,-1.5577,-1.5576,-1.5575,-1.5591,-1.5577,-1.5577,-1.5578,-1.5578,-1.5578,0,-1.5621,-1.5619,-1.5615,-1.5611,-1.5607,-1.5609,-1.5605,-1.5602,-1.5597,-1.5593,-1.5589,-1.5582,-1.5576,-1.5574,-1.5568,-1.5564,-1.5564,-1.5562,-1.5562,-1.5561,-1.5574,-1.5576,-1.5562,-1.5562,-1.5562,-1.5562,-1.5562,-1.5562,-1.5615,-1.5609,-1.5608,-1.5601,-1.5599,-1.5593,-1.559,-1.5587,-1.5584,-1.5576,-1.5571,-1.557,-1.5566,-1.5559,-1.5553,-1.5552,-1.555,-1.5547,-1.5546,-1.5559,-1.556,-1.5562,-1.5563,-1.5547,-1.5547,-1.5533,-1.5533,-1.5533]},{"header":{"parameterUnit":"m.s-1","parameterCategory":1,"la1":30.2991,"la2":30.254,"lo1":-89.0895,"lo2":-89.0444,"dy":0.0017,"dx":0.0017,"nx":28,"ny":28,"refTime":"2025-01-27T03:00:00:Z","depth":0,"parameterNumber":3,"parameterNumberName":"V-component_of_WINDS"},"data":[0,0,0,0,0,0,0,0,0,0,0,0,0,0,0,0,0,0,0,0,0,0,0,0,0,0,0,0,0,0,0,0,0,0,0,0,0,0,0,0,0,0,0,0,0,0,0,0,0,0,0,0,0,0,0,0,0,0,1.468,1.4681,0,1.4717,1.4717,1.4717,1.4695,1.4694,1.4693,1.4692,1.4729,1.4731,1.4733,0,0,0,0,0,0,0,0,0,0,0,0,0,1.4593,1.4595,1.468,1.4681,1.4681,1.4717,1.4717,1.4718,1.4695,1.4694,1.4693,1.4692,1.4728,1.4731,1.4733,0,0,0,0,0,0,0,0,0,0,0,0,0,1.4631,1.4596,1.468,1.4674,1.4674,1.4716,1.4717,1.4718,1.4696,1.4694,1.4693,1.4691,1.4728,1.473,1.4733,1.4783,0,0,1.4742,1.4744,0,0,0,0,0,0,0,0,1.4628,1.4634,1.4675,1.4675,1.4675,1.47,1.47,1.474,1.4696,1.4688,1.4692,1.469,1.472,1.4724,1.4734,1.4785,1.4786,1.4743,1.4744,1.4746,1.4746,0,0,0,0,0,0,0,1.4626,1.4632,1.4695,1.4675,1.4675,1.4671,1.4674,1.4707,1.4712,1.4688,1.4687,1.4691,1.472,1.4731,1.4735,1.4787,1.4742,1.4745,1.4747,1.4748,1.4884,1.4885,0,0,0,0,0,0,1.4624,1.463,1.4693,1.4696,1.4647,1.4673,1.4677,1.4693,1.4712,1.4713,1.4693,1.469,1.4727,1.4731,1.4736,1.4798,1.4746,1.4748,1.475,1.4882,1.4884,1.4886,0,0,0,0,0,0,1.4622,1.4629,1.4692,1.4663,1.467,1.4677,1.4695,1.4695,1.4706,1.4715,1.4716,1.4703,1.4726,1.4732,1.4772,1.4799,1.475,1.4752,1.488,1.4882,1.4885,1.4921,0,0,0,0,0,0,1.4619,1.4629,1.4647,1.4663,1.4672,1.4727,1.4696,1.4697,1.4711,1.4708,1.4725,1.4727,1.4725,1.4768,1.4775,1.4802,1.4755,1.4877,1.4881,1.4884,1.4918,1.4925,1.4931,0,0,0,0,0,1.4616,1.4655,1.4648,1.4656,1.4695,1.4729,1.4734,1.4732,1.4713,1.4733,1.4739,1.4726,1.4795,1.4772,1.478,1.4808,1.4876,1.488,1.4884,1.4915,1.4923,1.4931,0,0,0,0,0,0,1.4642,1.4657,1.465,1.4695,1.4711,1.4725,1.4749,1.474,1.4762,1.4758,1.4754,1.4758,1.4801,1.4808,1.4783,1.4859,1.4832,1.4838,1.4853,1.4861,1.4868,1.4866,1.4757,0,0,0,0,0,1.4653,1.4679,1.4691,1.4729,1.4738,1.4742,1.4757,1.4754,1.477,1.4777,1.4786,1.4803,1.4828,1.4845,1.4868,1.4918,1.4923,1.4942,1.4948,1.4954,1.4959,1.4989,1.4998,1.49,1.49,1.4899,0,0,1.4675,1.4687,1.4704,1.4735,1.4747,1.4775,1.4748,1.4778,1.4799,1.4781,1.4821,1.4828,1.4847,1.4893,1.4913,1.49,1.4988,1.4959,1.4963,1.4966,1.4994,1.5004,1.5012,1.4902,1.4902,1.4901,0,0,1.4732,1.4742,1.4777,1.479,1.4809,1.4812,1.4821,1.4837,1.4842,1.4881,1.4869,1.4894,1.4937,1.4952,1.4965,1.503,1.5019,1.5037,1.5072,1.5101,1.5109,1.5116,1.5142,1.5151,1.5042,1.5043,1.5043,0,1.4758,1.4799,1.4796,1.4828,1.4843,1.4829,1.4865,1.4878,1.4904,1.4915,1.49,1.4956,1.4967,1.5018,1.5034,1.5044,1.5055,1.5036,1.5108,1.5115,1.5122,1.5146,1.5155,1.5045,1.5045,1.5044,1.5044,0,1.4831,1.4861,1.4886,1.4913,1.4931,1.4965,1.4968,1.4986,1.4982,1.4987,1.5029,1.5042,1.507,1.5081,1.5077,1.5132,1.5124,1.5109,1.5082,1.5133,1.5156,1.5165,1.5048,1.5047,1.5047,1.5046,0,0,1.4904,1.493,1.494,1.4953,1.4974,1.4997,1.5031,1.5059,1.5076,1.5094,1.5124,1.5162,1.5149,1.5164,1.5161,1.5187,1.524,1.5168,1.5169,1.5183,1.5305,1.5318,1.5329,1.5233,1.5235,1.5236,1.5305,0,1.4964,1.5023,1.5023,1.5079,1.5107,1.5095,1.5125,1.5142,1.5148,1.5173,1.5179,1.5208,1.5187,1.5196,1.5221,1.5229,1.5265,1.5223,1.5262,1.5264,1.526,1.534,1.5353,1.5417,1.5313,1.5315,1.5316,0,1.5041,1.5064,1.5123,1.5142,1.5154,1.5181,1.5208,1.5232,1.5251,1.5254,1.5272,1.5266,1.5302,1.5273,1.5324,1.5296,1.5312,1.5318,1.5321,1.5326,1.5294,1.535,1.5437,1.5448,1.5329,1.5328,1.5327,0,1.5091,1.5136,1.5178,1.519,1.5213,1.5233,1.5243,1.5261,1.5279,1.5302,1.5314,1.534,1.5356,1.5377,1.5379,1.5358,1.5431,1.5402,1.5436,1.5436,1.5453,1.5452,1.5547,1.546,1.546,1.546,1.5459,0,1.5159,1.5196,1.5202,1.5228,1.527,1.5269,1.5311,1.532,1.5336,1.5365,1.5355,1.5382,1.5382,1.541,1.5412,1.5455,1.5461,1.5466,1.5466,1.5468,1.5468,1.5479,1.5476,1.5462,1.5462,1.5461,1.5461,0,1.5222,1.5227,1.5273,1.5292,1.5298,1.5328,1.5345,1.537,1.5376,1.5412,1.542,1.543,1.5462,1.5466,1.5503,1.5505,1.5558,1.5552,1.5552,1.5552,1.5586,1.5584,1.5693,1.5708,1.561,1.561,1.5611,0,1.5266,1.5295,1.5317,1.5336,1.5348,1.5378,1.5397,1.5397,1.5417,1.5443,1.5466,1.5498,1.5523,1.5576,1.5586,1.5616,1.5612,1.5648,1.5616,1.5618,1.5616,1.5615,1.5619,1.5655,1.5656,1.5657,1.5658,0,1.5344,1.5346,1.5373,1.5402,1.5425,1.5447,1.5468,1.5484,1.5488,1.5511,1.5545,1.5565,1.5604,1.5637,1.5666,1.5677,1.5669,1.5668,1.5678,1.5681,1.568,1.5684,1.5571,1.5665,1.5665,1.5664,1.5664,1.5663,1.5401,1.5427,1.5448,1.5479,1.5495,1.5516,1.5542,1.5552,1.558,1.5613,1.5611,1.5649,1.567,1.5709,1.5723,1.5753,1.5741,1.5755,1.5759,1.5763,1.5767,1.5674,1.5758,1.5758,1.5758,1.5757,1.5757,0,1.548,1.5494,1.5523,1.5554,1.5579,1.5569,1.5593,1.5615,1.5648,1.5669,1.5695,1.5735,1.5767,1.578,1.5812,1.5834,1.5831,1.5842,1.5842,1.5845,1.5775,1.5764,1.5844,1.5844,1.5844,1.5844,1.5844,1.5844,1.5525,1.557,1.5574,1.5628,1.5641,1.5679,1.5693,1.5713,1.573,1.5775,1.5802,1.5811,1.5829,1.5863,1.5892,1.5895,1.5909,1.5922,1.5924,1.5858,1.585,1.5841,1.5832,1.5925,1.5925,1.5992,1.5993,1.5993]}]]